Marion, IN

5:45 AM EST on December 15, 2017 (GMT -0500)
Marion Municipal

Weather History for KMZZ - March, 2014

Change the Weather History Date:

Saturday, March 15, 2014

  Actual Average (KMIE) Record (KMIE)
Temperature  
Mean Temperature 38 °F -  
Max Temperature 45 °F 47 °F 79 °F (2012)
Min Temperature 32 °F 29 °F 9 °F (1993)
Degree Days  
Heating Degree Days 26    
Moisture  
Dew Point 29 °F    
Average Humidity 70    
Maximum Humidity 87    
Minimum Humidity 46    
Precipitation  
Precipitation 0.00 in - - ()
Sea Level Pressure  
Sea Level Pressure 30.04 in    
Wind  
Wind Speed 10 mph (NW)    
Max Wind Speed 18 mph    
Max Gust Speed 24 mph    
Visibility 10 miles    
Events      
Averages and records for this station are not official NWS values.
T = Trace of Precipitation, MM = Missing Value Source: NWS Daily Summary

Daily Weather History Graph

Daily Weather History Graph

Search for Another Location

Airport or City:

Trip Planner

Search our weather history database for the weather conditions in past years. The results will help you decide how hot, cold, wet, or windy it might be!

Date:

Astronomy

Mar. 15, 2014 Rise Set
Actual Time 7:54 AM EDT 7:49 PM EDT
Civil Twilight 7:27 AM EDT 8:16 PM EDT
Nautical Twilight 6:55 AM EDT 8:48 PM EDT
Astronomical Twilight 6:23 AM EDT 9:20 PM EDT
Moon 7:08 PM EDT 7:05 AM EDT
Length of Visible Light 12h 49m
Length of Day
11h 55m
Waxing Gibbous, 99% of the Moon is Illuminated
Mar 15
Waxing Gibbous
Mar 16
Full
Mar 23
Last Quarter
Mar 30
New
Apr 7
First Quarter

Hourly Weather History & Observations

Time (EDT) Temp. Windchill Dew Point Humidity Pressure Visibility Wind Dir Wind Speed Gust Speed Precip Events Conditions
12:15 AM 37.8 °F 30.7 °F 31.8 °F 79% 29.89 in 10.0 mi WNW 10.4 mph - N/A   Clear
12:35 AM 36.9 °F 30.1 °F 31.3 °F 80% 29.89 in 10.0 mi WNW 9.2 mph - N/A   Clear
12:55 AM 36.0 °F 29.0 °F 31.1 °F 82% 29.89 in 10.0 mi West 9.2 mph - N/A   Clear
1:15 AM 35.2 °F 28.8 °F 30.7 °F 84% 29.89 in 10.0 mi West 8.1 mph - N/A   Clear
1:35 AM 34.2 °F 26.8 °F 30.6 °F 87% 29.89 in 10.0 mi West 9.2 mph - N/A   Clear
1:55 AM 35.4 °F 26.4 °F 30.7 °F 83% 29.89 in 10.0 mi West 13.8 mph - N/A   Clear
2:15 AM 36.9 °F 26.8 °F 30.0 °F 76% 29.89 in 10.0 mi WNW 18.4 mph 24.2 mph N/A   Clear
2:35 AM 37.0 °F 28.5 °F 29.3 °F 74% 29.91 in 10.0 mi West 13.8 mph - N/A   Clear
2:55 AM 36.5 °F 27.4 °F 29.7 °F 76% 29.91 in 10.0 mi West 15.0 mph - N/A   Clear
3:15 AM 36.5 °F 27.4 °F 29.3 °F 75% 29.92 in 10.0 mi West 15.0 mph - N/A   Clear
3:35 AM 36.5 °F 27.8 °F 29.3 °F 75% 29.92 in 10.0 mi West 13.8 mph - N/A   Clear
3:55 AM 36.0 °F 27.5 °F 29.3 °F 77% 29.91 in 10.0 mi West 12.7 mph - N/A   Clear
4:15 AM 35.4 °F 27.8 °F 29.1 °F 78% 29.91 in 10.0 mi West 10.4 mph - N/A   Clear
4:35 AM 34.3 °F 27.0 °F 29.1 °F 81% 29.91 in 10.0 mi WSW 9.2 mph - N/A   Clear
4:55 AM 34.0 °F 26.0 °F 29.7 °F 84% 29.91 in 10.0 mi West 10.4 mph - N/A   Clear
5:15 AM 34.3 °F 25.5 °F 29.8 °F 84% 29.91 in 10.0 mi West 12.7 mph - N/A   Clear
5:35 AM 34.7 °F 26.4 °F 29.8 °F 82% 29.92 in 10.0 mi West 11.5 mph - N/A   Clear
5:55 AM 34.7 °F 26.9 °F 29.7 °F 82% 29.93 in 10.0 mi West 10.4 mph - N/A   Clear
6:15 AM 34.7 °F 26.4 °F 29.3 °F 81% 29.93 in 10.0 mi West 11.5 mph - N/A   Clear
6:35 AM 35.1 °F 25.9 °F 29.5 °F 80% 29.94 in 10.0 mi West 13.8 mph - N/A   Clear
6:55 AM 35.1 °F 26.4 °F 29.5 °F 80% 29.94 in 10.0 mi West 12.7 mph - N/A   Clear
7:15 AM 34.5 °F 26.2 °F 29.5 °F 82% 29.95 in 10.0 mi West 11.5 mph - N/A   Clear
7:35 AM 34.0 °F 26.6 °F 29.3 °F 83% 29.96 in 10.0 mi West 9.2 mph - N/A   Clear
7:55 AM 33.1 °F 24.9 °F 29.3 °F 86% 29.97 in 10.0 mi West 10.4 mph - N/A   Clear
8:15 AM 33.1 °F 24.9 °F 29.3 °F 86% 29.99 in 10.0 mi West 10.4 mph - N/A   Clear
8:35 AM 33.6 °F 26.2 °F 29.5 °F 85% 29.99 in 10.0 mi WNW 9.2 mph - N/A   Clear
8:55 AM 34.0 °F 26.6 °F 29.8 °F 85% 30.01 in 10.0 mi West 9.2 mph - N/A   Clear
9:15 AM 34.3 °F 26.5 °F 29.8 °F 84% 30.02 in 10.0 mi WNW 10.4 mph - N/A   Clear
9:35 AM 35.4 °F 27.3 °F 29.8 °F 80% 30.02 in 10.0 mi WNW 11.5 mph - N/A   Clear
9:55 AM 36.0 °F 28.0 °F 30.0 °F 79% 30.03 in 10.0 mi WNW 11.5 mph - N/A   Clear
10:15 AM 36.5 °F 29.2 °F 30.4 °F 78% 30.04 in 10.0 mi NW 10.4 mph - N/A   Clear
10:35 AM 36.9 °F 30.7 °F 30.6 °F 78% 30.05 in 10.0 mi NW 8.1 mph - N/A   Scattered Clouds
10:55 AM 37.4 °F 30.3 °F 30.7 °F 77% 30.06 in 10.0 mi NW 10.4 mph - N/A   Overcast
11:15 AM 37.9 °F 32.1 °F 30.6 °F 75% 30.07 in 10.0 mi NNW 8.1 mph - N/A   Mostly Cloudy
11:35 AM 38.5 °F 32.7 °F 30.2 °F 72% 30.08 in 10.0 mi WNW 8.1 mph - N/A   Mostly Cloudy
11:55 AM 39.0 °F 32.8 °F 30.2 °F 71% 30.08 in 10.0 mi WNW 9.2 mph - N/A   Mostly Cloudy
12:15 PM 39.4 °F 33.2 °F 30.0 °F 69% 30.09 in 10.0 mi WNW 9.2 mph - N/A   Mostly Cloudy
12:35 PM 39.7 °F 34.9 °F 30.2 °F 69% 30.09 in 10.0 mi NNW 6.9 mph - N/A   Scattered Clouds
12:55 PM 40.5 °F 34.6 °F 30.0 °F 66% 30.10 in 10.0 mi NW 9.2 mph - N/A   Scattered Clouds
1:15 PM 41.4 °F 35.7 °F 29.8 °F 64% 30.11 in 10.0 mi WNW 9.2 mph - N/A   Clear
1:35 PM 42.1 °F 36.1 °F 30.9 °F 65% 30.11 in 10.0 mi NW 10.4 mph - N/A   Scattered Clouds
1:55 PM 42.8 °F 36.6 °F 29.5 °F 59% 30.11 in 10.0 mi WNW 11.5 mph - N/A   Mostly Cloudy
2:15 PM 42.8 °F 37.0 °F 27.7 °F 55% 30.11 in 10.0 mi NW 10.4 mph - N/A   Overcast
2:35 PM 43.0 °F 37.2 °F 28.6 °F 57% 30.11 in 10.0 mi WNW 10.4 mph - N/A   Overcast
2:55 PM 43.7 °F 39.1 °F 28.8 °F 56% 30.10 in 10.0 mi NW 8.1 mph - N/A   Mostly Cloudy
3:15 PM 44.1 °F 39.5 °F 27.3 °F 52% 30.09 in 10.0 mi WNW 8.1 mph - N/A   Scattered Clouds
3:35 PM 44.4 °F 42.9 °F 26.1 °F 49% 30.08 in 10.0 mi WNW 3.5 mph - N/A   Mostly Cloudy
3:55 PM 44.6 °F 40.7 °F 26.4 °F 49% 30.09 in 10.0 mi West 6.9 mph - N/A   Mostly Cloudy
4:15 PM 45.0 °F 40.6 °F 27.5 °F 50% 30.09 in 10.0 mi WNW 8.1 mph - N/A   Scattered Clouds
4:35 PM 45.3 °F 41.6 °F 27.5 °F 50% 30.09 in 10.0 mi WNW 6.9 mph - N/A   Clear
4:55 PM 45.7 °F 42.7 °F 28.8 °F 52% 30.09 in 10.0 mi West 5.8 mph - N/A   Clear
5:15 PM 45.7 °F 42.7 °F 28.9 °F 52% 30.09 in 10.0 mi NNW 5.8 mph - N/A   Clear
5:35 PM 45.5 °F 42.5 °F 27.9 °F 50% 30.09 in 10.0 mi NNW 5.8 mph - N/A   Scattered Clouds
5:55 PM 45.3 °F 43.0 °F 26.4 °F 48% 30.09 in 7.0 mi NNW 4.6 mph - N/A   Clear
6:15 PM 45.0 °F 41.2 °F 25.3 °F 46% 30.08 in 10.0 mi NNW 6.9 mph - N/A   Clear
6:35 PM 45.0 °F 42.6 °F 26.1 °F 48% 30.09 in 7.0 mi NNW 4.6 mph - N/A   Scattered Clouds
6:55 PM 44.6 °F 41.4 °F 27.3 °F 51% 30.10 in 7.0 mi North 5.8 mph - N/A   Mostly Cloudy
7:15 PM 43.9 °F 41.3 °F 27.3 °F 52% 30.11 in 10.0 mi North 4.6 mph - N/A   Scattered Clouds
7:35 PM 43.2 °F 37.9 °F 29.1 °F 58% 30.11 in 10.0 mi NNE 9.2 mph - N/A   Scattered Clouds
7:55 PM 41.7 °F 36.1 °F 29.7 °F 62% 30.11 in 10.0 mi NNE 9.2 mph - N/A   Scattered Clouds
8:15 PM 40.5 °F 34.1 °F 28.4 °F 62% 30.11 in 10.0 mi NNE 10.4 mph - N/A   Clear
8:35 PM 39.4 °F 33.2 °F 28.8 °F 66% 30.12 in 10.0 mi NE 9.2 mph - N/A   Clear
8:55 PM 38.1 °F 32.3 °F 28.8 °F 69% 30.13 in 10.0 mi NE 8.1 mph - N/A   Clear
9:15 PM 36.9 °F 30.7 °F 28.8 °F 72% 30.14 in 10.0 mi NNE 8.1 mph - N/A   Clear
9:35 PM 36.1 °F 29.3 °F 28.0 °F 72% 30.15 in 10.0 mi NNE 9.2 mph - N/A   Clear
9:55 PM 35.6 °F 28.6 °F 27.7 °F 73% 30.16 in 10.0 mi NNE 9.2 mph - N/A   Clear
10:15 PM 35.1 °F 27.4 °F 27.1 °F 73% 30.17 in 10.0 mi NNE 10.4 mph 16.1 mph N/A   Clear
10:35 PM 34.5 °F 27.3 °F 26.6 °F 73% 30.17 in 10.0 mi NNE 9.2 mph - N/A   Clear
10:55 PM 33.8 °F 24.3 °F 25.9 °F 73% 30.17 in 10.0 mi NE 13.8 mph 17.3 mph N/A   Clear
11:15 PM 33.3 °F 23.2 °F 24.8 °F 71% 30.16 in 10.0 mi NE 15.0 mph 20.7 mph N/A   Clear
11:35 PM 32.7 °F 23.4 °F 24.1 °F 71% 30.17 in 10.0 mi NE 12.7 mph - N/A   Clear
11:55 PM 32.2 °F 23.2 °F 23.9 °F 72% 30.17 in 10.0 mi NE 11.5 mph 16.1 mph N/A   Clear